Home   Weather   Sheboygan   Past weeks

Flag for USA Past Weather in Sheboygan, Wisconsin, USA — Yesterday and Last 2 Weeks

Now
58 °F

Mostly cloudy.


Feels Like: 55 °F
Forecast: 51 / 59 °F
Wind: 13 mph from West

Location: Sheboygan County Memorial Airport

Current Time: Sep 27, 2016 at 3:50:10 PM

Latest Report: Sep 27, 2016 at 2:53 PM


Visibility: 10 mi

Pressure: 29.70 "Hg

Humidity: 60%

Dew Point: 44 °F

Location of SheboyganLocation

Past Weather in Sheboygan — Graph

°F

Sheboygan Temperature Yesterday

Maximum temperature yesterday: 64 °F (at 1:53 PM)
Minimum temperature yesterday: 50 °F (at 10:53 PM)
Average temperature yesterday: 58 °F

High & Low Weather Summary for the Past Weeks

 TemperatureHumidityPressure
High81 °F (Sep 19, 11:53 AM)100% (Sep 20, 6:53 AM)30.31 "Hg (Sep 20, 6:53 AM)
Low49 °F (Sep 27, 3:53 AM)37% (Sep 26, 2:53 PM)29.69 "Hg (Sep 27, 10:53 AM)
Average64 °F79%30.04 "Hg
* Reported Sep 12 1:53 PM — Sep 27 1:53 PM, Sheboygan, Weather by CustomWeather, © 2016

Note: Actual official high and low records may vary slightly from our data, if they occured in-between our weather recording intervals... More about our weather records

Advertising

Sheboygan Weather History for the Previous 24 Hours

Scroll right to see more
 ConditionsComfort  
Time TempWeatherWind HumidityBarometerVisibility
1:53 PM
Tue, Sep 27
56 °FOvercast.10 mph65%29.70 "Hg10 mi
12:53 PM58 °FOvercast.17 mph60%29.70 "Hg10 mi
11:53 AM58 °FMostly cloudy.16 mph60%29.70 "Hg10 mi
10:53 AM58 °FPartly sunny.15 mph60%29.69 "Hg10 mi
9:53 AM54 °FOvercast.15 mph64%29.70 "Hg10 mi
8:53 AM53 °FOvercast.17 mph64%29.70 "Hg10 mi
7:53 AM52 °FOvercast.14 mph64%29.70 "Hg10 mi
6:53 AM52 °FOvercast.14 mph64%29.70 "Hg10 mi
5:53 AM52 °FPassing clouds.12 mph61%29.70 "Hg10 mi
4:53 AM50 °FPassing clouds.9 mph68%29.72 "Hg10 mi
3:53 AM49 °FClear.10 mph71%29.73 "Hg10 mi
2:53 AM50 °FClear.10 mph68%29.74 "Hg10 mi
1:53 AM52 °FClear.12 mph64%29.76 "Hg10 mi
12:53 AM51 °FClear.12 mph66%29.77 "Hg10 mi
11:53 PM
Mon, Sep 26
51 °FClear.10 mph69%29.78 "Hg10 mi
10:53 PM50 °FClear.9 mph71%29.81 "Hg10 mi
9:53 PM52 °FClear.9 mph64%29.83 "Hg10 mi
8:53 PM53 °FPassing clouds.9 mph64%29.84 "Hg10 mi
7:53 PM57 °FPassing clouds.8 mph51%29.85 "Hg10 mi
6:53 PM59 °FClear.8 mph46%29.83 "Hg10 mi
5:53 PM62 °FPassing clouds.15 mph38%29.83 "Hg10 mi
4:53 PM62 °FScattered clouds.14 mph41%29.82 "Hg10 mi
3:53 PM62 °FOvercast.18 mph41%29.83 "Hg10 mi
Weather by CustomWeather, © 2016

See weather overviewHow to use our weather pages